Wind_Speed
22 20 18 18 16 14 14 14 12 10 9 7 5 4 4 3 2 2 1 1 2 1
22 20 19 18 18 17 16 14 13 11 8 6 5 3 3 3 2 2 3 3 3 2
21 20 19 21 19 17 17 15 13 10 8 7 5 5 3 2 4 4 4 3 3 2
23 23 22 20 19 19 17 15 13 11 8 7 6 5 5 4 5 6 5 6 5 5
26 25 24 22 22 20 17 16 14 11 10 9 7 7 6 7 7 7 7 6 5 5
29 29 27 25 22 21 18 16 14 12 10 8 8 7 7 6 7 7 7 7 6 5
33 31 28 25 22 20 17 15 13 12 11 10 9 7 6 6 7 7 7 5 3 3
34 29 28 26 22 19 17 15 14 13 11 10 9 9 8 7 7 7 7 5 3 5
32 30 26 25 24 21 18 17 14 12 11 11 12 13 16 11 9 8 8 8 6 7
33 32 29 25 23 22 19 15 14 13 13 12 14 15 16 16 10 11 11 11 8 7
31 28 27 26 23 22 20 19 18 19 13 12 16 16 15 12 10 10 10 10 9 8
33 30 24 23 25 25 23 21 20 19 17 13 15 15 15 10 9 11 11 10 10 9
26 28 29 27 25 22 21 22 22 20 16 14 16 17 16 12 11 10 11 11 10 9
30 28 26 25 22 22 21 19 17 16 15 15 15 17 17 19 11 11 11 9 9 10
Wind_Direction
190 189 187 182 189 184 185 191 192 192 187 185 185 182 164 149 141 131 95 24 113 14
187 184 184 183 183 188 189 190 188 186 185 185 185 182 174 169 154 127 105 76 54 50
186 182 185 188 184 186 189 189 187 183 185 188 193 194 187 148 139 127 109 85 70 40
186 187 189 188 187 191 188 183 181 181 186 191 188 177 176 166 133 115 93 65 53 47
194 192 189 189 188 192 189 184 186 179 193 190 185 178 169 149 133 110 94 92 79 72
194 193 190 190 185 190 186 188 181 184 186 176 177 170 159 154 128 117 107 101 95 83
195 195 186 189 184 184 182 182 175 176 182 182 167 164 148 136 115 110 118 111 96 92
194 189 187 183 179 175 174 180 175 178 174 172 157 164 146 132 127 121 106 98 81 76
191 185 184 178 178 177 172 184 168 166 171 181 193 175 153 143 137 120 105 104 80 80
186 181 178 182 177 172 168 171 172 163 180 191 174 169 162 145 136 135 134 124 109 99
187 180 183 181 175 169 168 177 178 170 179 180 173 167 171 163 145 137 136 135 140 124
197 189 185 187 185 183 188 193 180 169 184 180 169 168 163 150 141 140 136 138 135 130
189 193 190 184 180 180 188 181 175 181 185 179 173 169 157 143 136 128 120 122 125 130
193 190 187 179 175 175 170 171 173 174 175 176 177 173 167 149 155 137 126 121 135 134
Height
1478 1483 1487 1488 1493 1495 1494 1494 1496 1498 1498 1500 1501 1501 1500 1500 1501 1500 1502 1503 1504 1503
1475 1478 1484 1485 1487 1491 1490 1492 1492 1494 1497 1498 1501 1501 1501 1500 1500 1500 1501 1501 1503 1502
1473 1476 1479 1481 1482 1487 1488 1490 1491 1492 1493 1496 1499 1500 1502 1500 1499 1499 1499 1500 1500 1501
1468 1470 1474 1477 1480 1483 1486 1487 1488 1490 1493 1496 1496 1499 1502 1501 1498 1497 1498 1497 1499 1500
1462 1466 1470 1472 1474 1480 1486 1486 1485 1487 1491 1495 1497 1498 1499 1501 1497 1495 1495 1497 1497 1498
1456 1458 1464 1467 1472 1477 1482 1484 1484 1485 1490 1494 1496 1499 1498 1499 1494 1492 1497 1496 1494 1494
1448 1453 1456 1463 1469 1474 1478 1481 1481 1483 1488 1491 1495 1498 1500 1498 1494 1493 1495 1493 1493 1493
1445 1449 1453 1460 1467 1472 1476 1479 1477 1481 1487 1492 1492 1496 1496 1496 1497 1495 1492 1492 1493 1494
1445 1443 1452 1458 1462 1469 1473 1477 1476 1479 1487 1490 1490 1492 1491 1494 1496 1495 1495 1495 1494 1492
1442 1441 1449 1456 1460 1465 1471 1474 1474 1481 1486 1486 1489 1491 1488 1492 1492 1492 1493 1494 1495 1494
1440 1441 1447 1452 1457 1463 1467 1471 1474 1483 1484 1485 1487 1487 1489 1489 1488 1490 1489 1489 1491 1491
1436 1439 1445 1449 1455 1459 1464 1471 1475 1479 1481 1482 1484 1486 1489 1488 1487 1489 1488 1489 1491 1492
1433 1437 1441 1447 1453 1459 1466 1470 1474 1477 1478 1478 1482 1485 1486 1486 1489 1489 1488 1489 1491 1495
1433 1438 1444 1448 1454 1459 1465 1469 1473 1477 1477 1478 1481 1482 1484 1485 1487 1490 1489 1491 1493 1495